Terug naar catalogus

THOR ABLESTAR DEB

ActiefLEO
NORAD 329·DEBRIS·🇺🇸 United States

Gelanceerd Jun 29, 1961 vanaf Cape Canaveral Space Force Station

Loading…

Volgende Passages (komende 24 uur)

TLE

VersSource: Space-Track

Epoch: Sep 7, 2026, 13:46 UTC

1 00329U 61015DF  26250.57363529 -.00000041  00000-0  35996-4 0  9994
2 00329  66.7807 181.3420 0120197 298.5579 237.5145 13.66145608241266

Volg THOR ABLESTAR DEB in realtime met AllMySat

Download on the App Store